TimeEST,TemperatureF,Dew PointF,Humidity,Sea Level PressureIn,VisibilityMPH,Wind Direction,Wind SpeedMPH,Gust SpeedMPH,PrecipitationIn,Events,Conditions,WindDirDegrees,DateUTC
12:15 AM,32.0,31.8,99,29.53,1.8,Calm,Calm,-,0.01,Snow,Light Snow,0,2013-02-20 05:15:00
12:35 AM,32.0,31.8,99,29.53,2.5,Calm,Calm,-,0.01,,Mist,0,2013-02-20 05:35:00
12:55 AM,32.0,31.8,99,29.53,2.0,Calm,Calm,-,0.01,Snow,Light Snow,0,2013-02-20 05:55:00
1:15 AM,32.0,31.8,99,29.52,1.5,Calm,Calm,-,N/A,Snow,Light Snow,0,2013-02-20 06:15:00
1:35 AM,32.0,32.0,100,29.51,1.8,Calm,Calm,-,N/A,Snow,Light Snow,0,2013-02-20 06:35:00
2:15 AM,32.0,32.0,100,29.49,3.0,Calm,Calm,-,0.01,Snow,Light Snow,0,2013-02-20 07:15:00
2:35 AM,32.9,32.9,100,29.48,5.0,West,6.9,-,0.01,Snow,Light Snow,270,2013-02-20 07:35:00
2:55 AM,34.0,33.8,99,29.49,4.0,WNW,8.1,-,0.02,Snow,Light Snow,300,2013-02-20 07:55:00
3:15 AM,33.4,32.9,98,29.49,1.5,West,10.4,20.7,0.02,Snow,Light Snow,270,2013-02-20 08:15:00
3:35 AM,32.9,32.0,96,29.50,0.8,WNW,13.8,21.9,0.03,Snow,Snow,290,2013-02-20 08:35:00
3:55 AM,32.0,30.2,93,29.50,1.2,West,17.3,26.5,0.03,Snow,Light Snow,280,2013-02-20 08:55:00
4:15 AM,32.0,28.0,85,29.51,7.0,WNW,16.1,23.0,N/A,Snow,Light Snow,290,2013-02-20 09:15:00
4:35 AM,31.5,27.0,83,29.53,7.0,West,16.1,25.3,N/A,Snow,Light Snow,280,2013-02-20 09:35:00
4:55 AM,31.1,26.6,83,29.53,10.0,WNW,11.5,-,N/A,Snow,Light Snow,290,2013-02-20 09:55:00
5:15 AM,30.2,27.1,88,29.53,7.0,West,11.5,16.1,N/A,Snow,Light Snow,270,2013-02-20 10:15:00
5:35 AM,29.7,27.0,90,29.54,4.0,WNW,11.5,-,N/A,Snow,Light Snow,290,2013-02-20 10:35:00
5:55 AM,29.3,26.8,90,29.54,5.0,West,6.9,-,N/A,Snow,Light Snow,280,2013-02-20 10:55:00
6:15 AM,29.3,26.1,88,29.54,10.0,West,5.8,-,N/A,,Unknown,280,2013-02-20 11:15:00
6:35 AM,29.3,25.9,87,29.54,10.0,West,5.8,-,N/A,,Unknown,270,2013-02-20 11:35:00
7:15 AM,29.3,25.3,85,29.55,10.0,WNW,4.6,-,N/A,,Unknown,300,2013-02-20 12:15:00
7:35 AM,29.3,25.0,84,29.55,10.0,WNW,8.1,-,N/A,,Unknown,290,2013-02-20 12:35:00
7:55 AM,29.3,24.1,81,29.55,10.0,WNW,9.2,-,N/A,,Unknown,300,2013-02-20 12:55:00
8:35 AM,29.3,24.1,81,29.56,10.0,West,10.4,-,N/A,,Unknown,280,2013-02-20 13:35:00
8:55 AM,29.3,23.7,80,29.56,10.0,WNW,4.6,-,N/A,,Unknown,290,2013-02-20 13:55:00
9:15 AM,29.3,22.5,76,29.56,10.0,West,8.1,-,N/A,,Unknown,280,2013-02-20 14:15:00
9:35 AM,29.1,22.3,76,29.56,10.0,WNW,6.9,17.3,N/A,Snow,Light Snow,290,2013-02-20 14:35:00
10:15 AM,28.9,22.5,77,29.57,10.0,West,6.9,-,N/A,Snow,Light Snow,280,2013-02-20 15:15:00
10:35 AM,28.9,21.9,75,29.57,7.0,West,10.4,21.9,N/A,Snow,Light Snow,270,2013-02-20 15:35:00
10:55 AM,29.8,22.1,73,29.57,10.0,West,10.4,-,N/A,,Unknown,260,2013-02-20 15:55:00
11:15 AM,30.0,20.8,69,29.58,10.0,West,12.7,17.3,N/A,,Unknown,260,2013-02-20 16:15:00
11:35 AM,30.0,21.0,69,29.58,10.0,West,8.1,-,N/A,,Unknown,280,2013-02-20 16:35:00
11:55 AM,29.3,20.3,69,29.58,10.0,West,13.8,20.7,N/A,Snow,Light Snow,270,2013-02-20 16:55:00
12:15 PM,29.3,20.3,69,29.57,10.0,West,9.2,17.3,N/A,,Unknown,280,2013-02-20 17:15:00
12:35 PM,30.2,19.9,66,29.57,10.0,West,10.4,18.4,N/A,,Unknown,270,2013-02-20 17:35:00
12:55 PM,30.0,17.6,60,29.57,10.0,West,11.5,20.7,N/A,,Unknown,280,2013-02-20 17:55:00
1:15 PM,29.8,18.3,62,29.56,10.0,West,9.2,16.1,N/A,,Unknown,270,2013-02-20 18:15:00
1:55 PM,29.3,18.0,63,29.56,10.0,West,13.8,20.7,N/A,,Unknown,280,2013-02-20 18:55:00
2:15 PM,29.1,17.4,62,29.56,10.0,West,16.1,23.0,N/A,,Unknown,280,2013-02-20 19:15:00
2:35 PM,29.3,18.9,65,29.56,10.0,West,11.5,21.9,N/A,,Unknown,280,2013-02-20 19:35:00
3:15 PM,29.7,19.2,65,29.58,10.0,West,9.2,20.7,N/A,,Unknown,270,2013-02-20 20:15:00
3:55 PM,28.4,19.2,69,29.58,10.0,West,10.4,19.6,N/A,,Unknown,280,2013-02-20 20:55:00
4:15 PM,28.0,19.2,70,29.59,10.0,West,10.4,19.6,N/A,,Unknown,280,2013-02-20 21:15:00
4:35 PM,27.5,18.5,69,29.59,10.0,West,11.5,24.2,N/A,,Unknown,270,2013-02-20 21:35:00
4:55 PM,27.3,18.3,69,29.59,10.0,West,10.4,25.3,N/A,,Unknown,270,2013-02-20 21:55:00
5:15 PM,27.1,18.1,69,29.60,10.0,West,9.2,-,N/A,,Unknown,280,2013-02-20 22:15:00
5:35 PM,27.0,17.1,66,29.60,10.0,WSW,11.5,18.4,N/A,,Unknown,250,2013-02-20 22:35:00
5:55 PM,27.0,15.6,62,29.61,10.0,West,8.1,17.3,N/A,,Unknown,270,2013-02-20 22:55:00
6:15 PM,26.8,14.2,59,29.61,10.0,West,11.5,18.4,N/A,,Unknown,280,2013-02-20 23:15:00
6:35 PM,26.6,14.0,59,29.62,10.0,West,8.1,-,N/A,,Unknown,280,2013-02-20 23:35:00
6:55 PM,26.2,14.5,61,29.63,10.0,West,12.7,18.4,N/A,,Unknown,280,2013-02-20 23:55:00
7:15 PM,25.7,14.9,64,29.63,10.0,West,11.5,18.4,N/A,,Unknown,280,2013-02-21 00:15:00
7:35 PM,25.2,14.4,64,29.64,10.0,West,10.4,-,N/A,,Unknown,270,2013-02-21 00:35:00
7:55 PM,25.0,13.5,62,29.64,10.0,West,9.2,-,N/A,,Unknown,270,2013-02-21 00:55:00
8:15 PM,24.8,13.3,62,29.65,10.0,West,8.1,18.4,N/A,,Unknown,280,2013-02-21 01:15:00
8:35 PM,24.3,14.0,65,29.65,10.0,West,9.2,19.6,N/A,,Unknown,280,2013-02-21 01:35:00
8:55 PM,24.1,14.0,65,29.66,10.0,West,9.2,-,N/A,,Unknown,280,2013-02-21 01:55:00
9:15 PM,24.3,14.4,66,29.66,10.0,West,4.6,-,N/A,,Unknown,280,2013-02-21 02:15:00
9:35 PM,23.9,14.7,68,29.67,10.0,West,4.6,-,N/A,,Unknown,270,2013-02-21 02:35:00
10:15 PM,23.7,14.7,69,29.68,10.0,West,5.8,-,N/A,,Unknown,280,2013-02-21 03:15:00
10:35 PM,23.0,14.7,71,29.69,10.0,West,9.2,-,N/A,,Unknown,280,2013-02-21 03:35:00
10:55 PM,22.6,14.9,72,29.69,10.0,WNW,4.6,-,N/A,,Unknown,300,2013-02-21 03:55:00
11:35 PM,23.0,15.3,72,29.69,10.0,WNW,4.6,-,N/A,,Unknown,290,2013-02-21 04:35:00
11:55 PM,22.8,15.3,73,29.69,10.0,WNW,6.9,-,N/A,,Unknown,290,2013-02-21 04:55:00